Dewpoint
68 68 68 68 69 68 68 69 67 64 64 62 61 61 61 61 60 59 59 55 59 58 54 57 61 63 61 61 61 59 62 62 63 57 62 63 63 66 66 64 64 65 63 63 62 62 62 61 62 61 60 61 61 60 60 59 58 60 61 61 62 62 63 63 64 66 66 66 66 65 64 64 64 63 63 63 63 62 61 60 60 60 60 59 59
67 68 68 68 69 68 68 69 67 69 66 63 64 65 66 65 67 61 55 57 57 59 59 59 57 59 60 62 62 61 62 62 61 61 61 64 63 64 66 64 65 65 64 63 62 61 62 61 62 61 59 60 61 60 61 60 58 60 60 61 62 62 63 64 65 66 66 66 65 64 63 62 63 63 62 62 61 61 61 59 59 59 59 58 58
67 66 67 68 67 68 67 68 68 69 68 70 72 68 67 65 64 63 65 55 58 58 59 61 58 55 58 59 60 62 61 60 60 59 58 63 64 63 65 66 65 65 65 64 65 63 62 63 63 62 61 60 60 60 61 61 59 60 59 62 61 61 63 64 65 66 66 66 64 63 62 62 62 62 62 61 61 60 59 59 59 59 59 58 58
68 68 68 68 68 68 68 67 68 68 69 69 69 67 65 65 62 65 67 63 64 59 61 61 59 56 56 57 59 61 60 62 60 58 58 62 64 63 63 64 65 64 65 64 66 65 62 63 63 62 62 60 60 59 60 61 60 59 61 61 61 62 63 64 65 66 67 66 64 63 63 62 61 62 61 60 60 60 59 58 58 58 58 57 57
68 68 68 68 69 69 68 68 68 69 67 68 70 70 67 66 66 65 65 67 63 64 60 60 62 61 60 56 59 58 58 59 60 60 59 60 64 63 63 63 63 64 64 65 65 64 65 65 63 63 62 61 60 59 60 60 59 59 61 61 62 62 63 64 66 67 66 65 64 64 63 62 62 61 61 60 60 59 58 58 58 57 57 57 57
67 68 67 68 67 67 68 68 69 68 68 68 69 69 68 67 62 62 63 64 62 63 64 61 59 61 61 57 58 59 59 58 60 60 61 60 59 63 64 63 62 61 62 66 65 65 65 66 65 63 63 62 60 60 59 60 60 57 61 61 62 63 63 64 66 67 66 65 64 63 63 62 61 61 61 59 59 58 57 57 57 57 56 56 56
68 68 68 68 68 67 68 68 68 68 68 68 68 68 69 67 66 61 63 63 58 59 60 61 60 59 60 62 58 58 60 58 60 60 59 61 61 61 65 64 63 61 61 61 66 64 65 65 66 67 64 63 61 61 60 59 59 57 60 62 63 64 64 64 67 67 65 65 64 63 62 61 61 61 60 59 59 58 57 57 57 56 56 55 55
68 68 68 67 68 67 67 67 67 69 68 67 67 67 67 70 66 64 64 62 59 59 59 60 61 61 60 61 58 61 59 59 60 59 59 59 58 59 61 61 63 62 62 60 61 63 64 64 63 65 65 64 63 61 60 60 61 56 61 62 63 64 64 65 67 66 65 64 63 62 62 61 61 61 60 59 58 58 57 57 56 56 55 55 55
68 68 68 68 67 66 67 65 67 68 68 68 68 69 69 65 67 66 63 65 56 53 55 58 59 59 60 59 59 58 60 59 58 60 58 60 59 58 59 59 60 66 63 61 61 60 63 63 65 63 65 65 63 62 62 62 62 58 58 61 63 64 64 67 67 66 64 64 63 62 62 61 61 61 59 58 58 57 57 56 56 56 55 55 54
64 65 66 68 68 67 68 68 67 68 67 68 68 69 69 68 67 66 64 60 57 56 60 60 57 55 57 56 59 59 58 60 59 61 60 59 60 59 57 59 59 58 59 60 61 61 60 63 64 63 64 64 65 63 63 63 62 61 57 59 63 64 64 68 67 65 65 64 63 62 62 62 61 60 59 58 58 57 56 55 55 55 54 54 54
63 64 64 64 64 67 67 67 66 65 66 68 67 68 68 68 66 65 65 65 63 59 60 62 60 56 54 54 56 57 58 58 60 60 59 59 58 59 57 58 58 58 59 59 60 62 60 61 63 62 62 64 64 65 64 65 63 61 59 58 62 64 64 67 67 65 64 64 63 62 62 62 61 60 59 58 57 57 56 55 55 54 54 54 54
61 62 63 64 63 64 65 66 66 65 65 67 67 67 68 68 67 66 66 65 64 63 61 61 60 59 57 59 54 54 55 58 59 58 58 59 60 60 57 56 57 57 58 57 58 59 61 61 63 61 62 63 64 64 64 64 64 65 61 57 62 64 65 68 67 65 64 63 62 62 62 61 60 59 58 58 57 56 56 55 54 54 53 53 53
61 61 61 62 63 64 64 64 65 65 66 65 66 67 67 68 68 67 66 65 66 66 64 63 62 60 60 58 59 54 55 57 56 55 56 59 60 60 59 57 56 58 57 57 59 58 61 61 61 61 60 62 63 63 63 62 63 64 60 57 61 63 66 67 67 65 64 63 62 63 62 61 60 59 58 58 57 56 55 54 53 53 52 52 51
62 63 62 62 62 62 62 64 64 64 64 65 65 65 66 66 67 66 66 66 65 66 66 66 62 59 58 56 56 59 57 58 55 54 53 57 59 58 59 58 56 56 58 59 58 58 57 62 62 60 60 61 61 61 61 61 62 63 64 60 61 63 65 67 68 65 64 63 62 63 62 61 60 59 58 57 56 55 54 54 53 52 52 52 51
59 61 61 63 63 62 62 62 64 64 64 63 64 65 65 66 65 64 64 64 64 65 67 66 63 62 62 58 53 52 57 58 58 55 54 55 56 56 55 55 52 54 58 58 57 57 56 57 61 61 59 60 60 60 60 61 60 62 63 63 63 65 64 65 67 65 64 63 62 62 62 61 60 59 58 57 56 55 54 53 53 52 52 51 51
57 52 58 59 60 61 62 63 62 64 65 64 64 64 65 65 64 65 65 64 64 63 65 67 65 64 59 56 54 54 53 54 55 57 55 55 56 54 54 52 51 51 55 57 57 57 57 56 56 59 59 59 60 60 60 60 60 61 61 62 62 64 64 64 68 65 64 63 62 63 62 61 60 59 58 57 56 55 54 53 52 52 51 50 50
57 59 56 57 61 62 61 61 62 63 64 62 63 63 65 65 64 64 64 63 63 64 65 66 65 66 63 61 57 54 51 55 54 57 56 55 54 54 54 53 51 52 54 54 55 57 57 56 57 58 59 59 60 60 60 59 59 61 60 62 61 62 64 63 67 65 64 63 63 63 62 61 60 59 58 56 56 55 53 52 52 51 51 50 50
57 56 58 58 60 60 61 60 59 62 63 64 63 61 62 63 65 64 64 64 64 64 63 65 64 64 64 62 61 58 57 59 55 57 59 57 56 54 53 54 53 54 53 53 53 54 57 57 58 59 61 59 59 60 61 60 60 59 59 59 60 60 59 61 66 66 65 63 63 63 63 62 60 59 58 57 56 55 54 52 52 51 51 51 50
57 58 58 59 59 60 60 60 59 59 60 62 62 62 61 59 62 64 64 64 64 62 62 63 65 64 64 64 63 61 59 60 57 55 56 58 57 58 55 52 53 53 52 52 52 54 57 55 55 56 57 60 59 58 59 61 60 60 60 59 58 58 57 57 60 66 64 63 63 63 63 62 60 59 57 57 56 55 54 53 52 52 51 51 50
59 57 58 56 58 58 58 59 59 56 57 58 60 61 62 61 62 64 64 64 64 63 63 63 62 61 63 63 62 62 59 58 57 54 51 55 55 57 57 57 56 55 54 53 53 53 57 56 54 55 57 57 59 59 59 59 60 59 60 58 57 57 56 55 56 58 61 62 63 63 63 62 61 59 58 57 56 55 54 54 53 52 51 51 50
57 57 58 58 58 58 59 57 58 58 56 55 57 58 60 61 62 64 65 65 64 64 63 62 62 62 62 61 61 61 62 60 59 58 56 50 51 54 55 57 58 60 57 55 55 56 55 56 55 54 57 58 58 59 58 59 59 59 58 56 56 56 55 55 54 56 56 61 62 63 63 62 61 60 58 57 56 55 54 54 53 52 52 51 50
59 57 55 56 58 57 57 57 57 56 58 56 56 57 58 58 58 59 62 64 64 64 63 63 62 62 62 61 60 60 60 59 60 59 56 54 54 52 57 57 55 55 59 57 55 55 55 58 56 54 54 58 58 59 59 59 59 58 54 55 55 55 54 54 54 54 54 59 62 62 63 62 61 60 59 57 57 56 55 54 54 53 52 50 49
62 59 58 57 57 57 58 56 57 57 56 56 56 55 56 58 60 60 60 63 63 64 63 62 62 61 62 61 61 59 58 57 56 58 58 57 58 57 57 58 55 55 57 57 55 54 53 57 56 55 55 57 58 58 59 59 59 57 54 55 54 54 54 54 54 53 54 59 62 62 63 62 61 60 59 58 57 57 56 55 54 52 51 50 48
60 59 57 58 59 58 57 57 56 56 56 56 56 55 56 56 57 58 58 59 62 63 63 62 62 61 61 62 62 61 60 59 58 58 60 58 59 59 59 58 57 56 56 58 57 53 52 53 55 55 55 55 55 57 58 59 57 56 55 55 54 53 53 54 53 53 53 58 60 61 62 62 62 61 60 59 58 57 56 54 53 52 51 50 48
54 59 58 55 59 56 56 56 56 56 57 56 56 56 56 57 56 56 56 57 59 61 63 62 62 61 61 62 62 61 60 60 60 61 62 64 63 60 62 63 59 58 60 62 58 55 53 53 55 56 56 55 55 54 55 55 54 55 56 55 54 53 54 54 53 52 52 54 56 59 61 61 61 61 60 59 58 57 55 54 53 51 51 50 46
56 56 56 56 55 56 55 54 54 53 54 54 55 54 54 54 54 55 55 56 57 57 60 62 63 62 62 61 61 62 62 61 60 61 60 60 60 59 57 59 58 59 61 63 61 57 54 54 54 55 55 54 53 56 55 54 60 56 57 56 55 55 54 54 53 52 51 52 52 54 55 58 59 59 58 58 57 54 51 48 46 45 45 46 46
53 56 55 55 55 55 55 54 53 53 53 53 54 54 54 54 53 54 55 55 55 57 57 58 60 61 61 61 61 61 61 62 62 61 60 60 59 59 58 56 58 59 58 62 61 60 59 53 54 54 55 54 54 58 57 61 59 56 56 57 57 54 54 53 52 52 51 50 50 51 52 54 55 55 54 53 50 49 49 48 46 45 45 45 45
54 55 54 54 54 54 54 53 52 52 52 51 52 52 53 54 53 54 53 54 55 55 55 56 57 59 61 62 61 62 62 61 61 61 61 60 59 59 60 59 57 55 58 58 60 60 63 61 56 53 54 55 54 59 61 61 59 57 59 58 58 56 53 52 51 51 50 50 49 49 50 51 51 51 50 50 50 50 50 49 48 46 45 44 44
54 53 54 54 54 54 53 52 52 51 50 50 50 50 51 52 52 53 54 54 54 54 55 55 55 57 58 61 61 60 60 61 61 61 62 61 61 61 61 60 59 57 56 55 57 58 61 60 55 53 54 54 56 62 61 60 58 59 59 59 58 57 54 53 51 50 50 49 49 49 49 49 48 48 49 50 49 49 47 47 46 45 44 44 45
54 54 54 53 53 51 52 50 50 50 50 49 48 48 50 50 50 51 51 53 53 54 54 54 55 55 56 58 61 61 61 62 62 61 61 61 61 61 62 62 62 59 58 55 55 58 60 62 60 57 54 54 59 62 61 60 56 59 60 59 58 57 52 51 50 50 50 49 49 48 47 47 47 47 49 49 48 47 46 45 44 44 44 44 44
52 52 53 52 52 52 52 50 49 48 48 48 48 47 48 49 49 49 50 51 52 52 53 53 54 55 55 55 58 61 61 61 61 62 61 61 61 61 61 62 62 61 59 59 56 57 60 59 61 60 59 60 60 60 59 58 58 59 58 58 57 54 52 51 50 50 50 49 48 47 46 45 45 45 46 47 46 45 44 45 46 44 44 44 44
52 52 51 50 48 48 48 48 47 47 46 46 46 46 47 47 48 48 48 49 49 50 51 52 52 53 53 54 55 57 62 61 61 61 62 61 61 61 60 61 61 62 61 60 58 56 60 62 61 62 61 60 59 59 56 58 57 55 57 57 55 53 53 52 50 49 49 48 47 46 46 45 44 44 44 45 45 44 44 44 44 44 45 44 44
51 50 48 46 44 45 44 45 44 45 45 45 46 46 45 45 46 47 46 47 47 47 49 50 51 51 52 52 52 53 55 59 59 59 58 59 61 61 60 60 60 60 60 59 58 57 59 61 61 62 62 61 58 55 54 55 52 48 50 52 53 53 51 49 49 48 47 47 45 45 44 44 44 44 43 44 43 43 44 44 45 44 44 44 43
50 47 44 46 45 44 43 43 43 43 44 43 44 44 44 44 45 46 46 45 45 46 48 48 49 50 51 51 52 52 53 53 58 57 57 58 58 60 60 59 58 59 60 59 58 57 56 59 60 61 61 61 59 54 55 53 47 46 48 49 50 49 49 46 46 47 46 46 45 44 44 44 43 43 43 42 42 43 44 44 44 43 43 43 42
48 47 46 45 44 43 42 43 42 42 42 42 44 44 44 44 43 44 46 45 45 45 46 46 47 48 49 50 51 52 54 53 54 56 58 56 56 56 59 60 59 58 59 59 57 56 56 57 60 60 59 59 59 54 53 52 45 45 46 46 45 44 44 43 44 45 45 44 44 44 44 44 43 43 43 43 42 43 42 43 42 42 41 40 40
46 47 46 43 43 43 43 42 41 41 42 42 43 43 43 43 43 43 43 44 44 44 44 45 45 46 47 49 50 51 52 53 53 53 53 56 57 56 57 59 60 59 58 59 58 56 56 55 59 59 58 58 58 54 52 49 43 44 44 44 42 42 43 41 41 42 43 44 44 44 44 44 43 43 42 42 43 42 42 42 42 41 40 39 39
46 47 45 44 43 42 43 40 40 41 42 42 43 43 44 44 44 43 43 43 43 43 44 44 46 45 46 47 48 50 51 51 52 53 52 52 54 57 58 58 59 59 59 58 58 56 55 54 57 58 57 54 54 52 49 45 43 44 43 41 39 38 40 40 40 41 44 44 44 44 43 43 42 42 42 42 42 42 41 41 40 40 39 39 39
45 45 45 43 42 40 39 40 41 41 42 42 42 42 42 43 43 44 43 43 43 43 43 44 44 45 45 46 47 48 49 50 51 52 53 53 53 58 59 59 60 60 60 59 60 59 55 54 56 56 57 53 51 48 46 44 41 41 42 40 37 37 38 39 40 41 42 41 43 43 42 42 42 42 42 42 41 41 40 40 40 39 39 40 39
45 45 43 41 41 41 40 40 41 41 41 42 42 42 42 42 43 43 43 42 42 43 43 43 43 44 45 45 46 47 48 49 51 51 52 52 54 54 57 58 58 60 59 59 59 59 58 55 56 56 56 54 52 47 45 44 43 40 40 38 37 37 37 37 38 39 40 40 41 42 41 40 41 40 41 41 41 40 40 39 39 40 39 38 38
45 42 41 41 40 40 41 41 41 41 41 41 41 41 41 41 41 42 42 42 42 42 43 43 43 43 44 45 45 46 47 48 49 51 51 51 52 53 54 57 58 58 59 59 59 58 58 57 56 57 56 55 55 47 45 43 40 37 37 38 36 35 37 37 36 36 37 38 37 37 39 40 39 39 41 40 40 39 39 39 39 39 38 38 38
44 42 41 40 40 40 40 41 41 41 42 42 41 41 41 41 41 41 41 41 42 42 42 42 43 43 43 44 45 45 47 48 47 47 48 48 52 52 53 54 56 57 56 57 58 58 58 58 57 57 56 54 53 46 44 43 40 38 41 40 38 35 35 35 33 32 34 34 33 32 32 34 33 35 34 35 36 38 38 38 38 39 39 38 38
42 41 40 40 40 40 40 40 40 42 42 42 42 41 41 42 41 40 41 41 41 41 42 42 43 43 43 44 45 46 46 46 45 44 44 44 45 47 49 50 52 56 57 57 57 58 57 56 56 56 54 54 49 46 44 43 42 40 39 36 35 34 33 32 32 31 33 30 29 28 29 32 32 32 30 31 35 37 36 35 33 37 38 38 38
42 41 41 39 39 40 39 39 39 41 41 41 40 38 38 39 41 41 40 40 40 40 40 40 40 41 43 43 44 45 45 45 45 43 43 42 42 43 43 44 46 49 52 56 56 56 57 56 57 56 54 53 49 46 43 42 41 38 39 41 37 35 33 31 29 31 32 29 27 26 28 30 28 28 26 25 31 36 33 34 34 37 38 38 37
42 43 41 40 39 39 40 39 39 39 40 40 38 38 38 38 39 41 40 40 40 40 39 39 39 40 40 41 43 45 45 45 45 46 45 43 42 42 42 42 42 42 44 49 53 56 57 57 57 57 56 52 50 45 43 42 41 40 39 37 36 34 36 33 32 29 30 29 26 26 28 29 28 28 26 23 28 33 29 32 34 36 37 37 37
44 41 40 40 39 39 39 38 38 38 38 38 37 37 37 37 37 39 39 40 39 39 39 39 39 39 39 40 41 43 44 45 47 46 46 47 44 43 43 43 43 42 41 41 45 53 57 57 57 58 57 54 52 47 44 42 42 43 42 40 39 36 35 35 34 31 30 29 26 26 26 28 28 28 27 27 28 33 29 33 34 36 37 37 36
44 41 40 40 39 39 38 38 37 37 37 38 37 37 37 36 36 37 38 38 38 38 38 38 39 38 39 39 39 40 41 42 44 45 46 46 46 47 47 46 47 46 43 41 41 42 49 56 58 57 58 57 53 49 46 43 43 42 40 41 42 40 36 37 35 33 30 30 26 27 29 29 27 29 26 25 26 33 31 31 35 35 36 36 35
42 41 39 39 39 39 39 38 37 37 38 37 36 36 36 36 36 36 37 38 38 38 38 38 38 38 38 39 38 38 39 41 42 43 45 46 46 48 48 49 48 48 48 47 47 46 47 52 56 58 59 58 55 54 50 45 44 43 43 43 41 41 39 41 38 34 30 29 29 30 30 29 28 26 27 27 32 31 32 35 36 36 36 36 35
42 42 40 39 39 38 37 36 36 36 36 36 35 36 36 36 36 37 37 38 37 37 37 37 37 37 37 38 38 38 38 39 40 39 40 42 44 45 48 49 49 50 51 48 46 46 49 50 52 55 59 60 53 54 49 46 46 47 46 46 43 41 39 36 34 33 31 31 32 30 32 27 27 28 27 29 32 31 33 33 37 36 36 35 35
41 39 38 38 37 36 36 36 36 35 35 35 35 35 35 35 36 36 37 37 36 36 36 36 36 36 37 37 37 38 38 38 38 37 38 39 41 43 45 47 49 49 50 52 47 44 44 45 47 49 50 51 48 45 44 42 47 47 47 45 41 40 37 34 33 32 31 31 32 33 34 28 28 29 31 30 31 29 29 29 32 35 35 35 35
38 37 37 36 36 36 35 35 35 35 34 35 35 35 35 35 36 35 37 37 36 36 36 36 37 36 37 40 40 37 37 38 37 37 37 39 40 41 43 45 47 49 50 51 50 46 45 45 45 48 49 48 47 44 43 43 43 44 45 45 42 43 38 36 32 31 32 31 34 41 35 29 29 30 35 27 30 30 28 26 28 31 35 34 35
38 36 35 35 35 35 34 34 37 35 33 34 34 34 35 35 36 36 36 36 36 36 36 36 36 37 37 38 40 39 38 38 37 37 37 38 40 41 43 46 46 48 50 51 50 50 50 51 50 51 48 48 48 48 47 42 42 44 47 46 45 40 38 36 34 33 32 32 33 37 36 30 28 30 28 27 29 29 29 28 27 26 28 28 30